DW0835 Weather Reports


Display with metric or nautical units.
time (UTC)temp
F
wind
direction
speed
MPH
gust
MPH
rain 1hr
in
rain 24hr
in
rain mn
in
humidity
%
barometer
mb
20210927071518 69 0.0 3.0 0.00 0.00 0.00 60 1006.4
20210927070519 70 0.0 3.0 0.00 0.00 0.00 59 1006.5
20210927065519 70 0.0 1.0 0.00 0.00 0.00 59 1006.6
20210927064530 70 0.0 3.0 0.00 0.00 0.00 58 1006.6
20210927063530 70 0.0 5.0 0.00 0.00 0.00 57 1006.7
20210927062530 71 0.0 3.0 0.00 0.00 0.00 56 1006.7
20210927061530 71 0.0 3.0 0.00 0.00 0.00 56 1006.7
20210927060519 71 0.0 3.0 0.00 0.00 0.00 55 1006.7
20210927055518 71 0.0 4.0 0.00 0.00 0.00 54 1006.7
20210927054528 72 0.0 3.0 0.00 0.00 0.00 54 1006.7
20210927053530 72 0.0 2.0 0.00 0.00 0.00 53 1006.7
20210927052530 72 0.0 6.0 0.00 0.00 0.00 52 1006.8
20210927051518 72 0.0 3.0 0.00 0.00 0.00 51 1006.8
20210927050530 73 248 1.0 5.0 0.00 0.00 0.00 51 1007.1
20210927045531 73 0.0 3.0 0.00 0.00 0.00 50 1007.1
20210927044529 73 0.0 3.0 0.00 0.00 0.00 50 1007.1
20210927043529 73 0.0 3.0 0.00 0.00 0.00 49 1007.2
20210927042528 74 0.0 2.0 0.00 0.00 0.00 49 1007.2
20210927041519 74 0.0 1.0 0.00 0.00 0.00 48 1007.2
20210927040530 74 0.0 2.0 0.00 0.00 0.00 48 1007.1
20210927035531 74 0.0 2.0 0.00 0.00 0.00 47 1007.2
20210927034529 74 0.0 2.0 0.00 0.00 0.00 47 1007.2
20210927033531 74 0.0 4.0 0.00 0.00 0.00 46 1007.3
20210927032519 74 0.0 2.0 0.00 0.00 0.00 46 1007.5
20210927031530 74 0.0 2.0 0.00 0.00 0.00 45 1007.5
20210927030517 74 0.0 6.0 0.00 0.00 0.00 45 1007.6
20210927025530 75 0.0 3.0 0.00 0.00 0.00 44 1007.6
20210927024529 75 0.0 3.0 0.00 0.00 0.00 44 1007.6
20210927023519 75 0.0 3.0 0.00 0.00 0.00 43 1007.6
20210927022519 75 0.0 4.0 0.00 0.00 0.00 44 1007.6
20210927021518 75 0.0 5.0 0.00 0.00 0.00 43 1007.6
20210927020530 75 0.0 2.0 0.00 0.00 0.00 43 1007.6
20210927015519 75 0.0 1.0 0.00 0.00 0.00 43 1007.9
20210927014531 75 0.0 2.0 0.00 0.00 0.00 43 1007.8
20210927013530 75 0.0 3.0 0.00 0.00 0.00 42 1007.9
20210927012519 76 0.0 1.0 0.00 0.00 0.00 42 1008.0
20210927011530 76 0.0 5.0 0.00 0.00 0.00 42 1008.0
20210927010531 76 0.0 0.0 0.00 0.00 0.00 42 1007.7
20210927005530 76 0.0 1.0 0.00 0.00 0.00 41 1007.6
20210927004530 77 0.0 1.0 0.00 0.00 0.00 41 1007.6
20210927003530 77 0.0 0.0 0.00 0.00 0.00 40 1007.5
20210927002530 77 0.0 4.0 0.00 0.00 0.00 39 1007.5
20210927001519 77 0.0 2.0 0.00 0.00 0.00 39 1007.5
20210927000519 78 0.0 2.0 0.00 0.00 0.00 39 1007.4
20210926235530 78 0.0 1.0 0.00 0.00 0.00 39 1007.5
20210926234531 78 0.0 1.0 0.00 0.00 0.00 38 1007.4
20210926233530 79 0.0 0.0 0.00 0.00 0.00 37 1007.6
20210926232530 79 0.0 2.0 0.00 0.00 0.00 36 1007.6
20210926231530 79 0.0 3.0 0.00 0.00 0.00 36 1007.6
20210926230530 80 0.0 0.0 0.00 0.00 0.00 36 1007.7
20210926225530 80 0.0 6.0 0.00 0.00 0.00 35 1007.6
20210926224530 80 0.0 2.0 0.00 0.00 0.00 34 1007.6
20210926223519 81 0.0 3.0 0.00 0.00 0.00 35 1007.6
20210926222530 81 0.0 4.0 0.00 0.00 0.00 35 1007.7
20210926221518 81 0.0 1.0 0.00 0.00 0.00 35 1007.7
20210926220518 81 0.0 2.0 0.00 0.00 0.00 35 1007.8
20210926215530 81 0.0 1.0 0.00 0.00 0.00 34 1007.9
20210926214530 81 0.0 2.0 0.00 0.00 0.00 34 1007.9
20210926213530 81 0.0 2.0 0.00 0.00 0.00 34 1008.0
20210926212518 82 0.0 4.0 0.00 0.00 0.00 34 1007.9
20210926211530 82 0.0 4.0 0.00 0.00 0.00 35 1007.9
20210926210518 82 0.0 4.0 0.00 0.00 0.00 35 1008.3
20210926205518 82 0.0 3.0 0.00 0.00 0.00 35 1008.3
20210926204518 82 0.0 3.0 0.00 0.00 0.00 35 1008.3
20210926203530 82 0.0 5.0 0.00 0.00 0.00 34 1008.5
20210926202530 82 0.0 1.0 0.00 0.00 0.00 35 1008.8
20210926201529 82 0.0 3.0 0.00 0.00 0.00 35 1008.8
20210926200518 82 293 1.0 4.0 0.00 0.00 0.00 34 1008.7
20210926195529 81 0.0 3.0 0.00 0.00 0.00 34 1009.1
20210926194530 81 270 1.0 5.0 0.00 0.00 0.00 34 1009.1
20210926193518 82 0.0 4.0 0.00 0.00 0.00 34 1009.3
20210926192522 82 270 1.0 5.0 0.00 0.00 0.00 33 1009.4
20210926191529 82 0.0 0.0 0.00 0.00 0.00 36 1009.4
20210926190518 81 0.0 4.0 0.00 0.00 0.00 35 1009.7
20210926185518 81 270 1.0 3.0 0.00 0.00 0.00 35 1009.8
20210926184530 81 0.0 2.0 0.00 0.00 0.00 36 1009.8
20210926183528 81 0.0 4.0 0.00 0.00 0.00 37 1010.1
20210926182529 80 270 1.0 7.0 0.00 0.00 0.00 36 1010.4
20210926181529 79 0.0 5.0 0.00 0.00 0.00 39 1010.4
20210926180529 79 293 1.0 4.0 0.00 0.00 0.00 38 1010.8
20210926175529 79 0.0 5.0 0.00 0.00 0.00 39 1010.8
20210926174517 78 225 1.0 5.0 0.00 0.00 0.00 40 1010.8
20210926173529 78 0.0 3.0 0.00 0.00 0.00 41 1010.9
20210926172529 77 0.0 5.0 0.00 0.00 0.00 40 1011.0
20210926171529 77 0.0 4.0 0.00 0.00 0.00 41 1011.0
20210926170529 76 0.0 0.0 0.00 0.00 0.00 43 1011.2
20210926165529 76 0.0 3.0 0.00 0.00 0.00 44 1011.5
20210926164529 75 0.0 3.0 0.00 0.00 0.00 45 1011.5
20210926163529 74 0.0 0.0 0.00 0.00 0.00 46 1011.4
20210926162518 74 0.0 6.0 0.00 0.00 0.00 46 1011.6
20210926161529 73 0.0 7.0 0.00 0.00 0.00 47 1011.6
20210926160529 72 0.0 0.0 0.00 0.00 0.00 48 1011.8
20210926155517 71 0.0 0.0 0.00 0.00 0.00 49 1011.9
20210926154517 70 0.0 0.0 0.00 0.00 0.00 51 1011.8
20210926153529 70 0.0 0.0 0.00 0.00 0.00 50 1011.9
20210926152529 69 0.0 0.0 0.00 0.00 0.00 52 1011.9
20210926151529 68 0.0 0.0 0.00 0.00 0.00 53 1011.9
20210926150529 68 0.0 0.0 0.00 0.00 0.00 53 1012.1
20210926145529 67 0.0 0.0 0.00 0.00 0.00 54 1012.2
20210926144529 66 0.0 0.0 0.00 0.00 0.00 55 1012.2
20210926143518 65 0.0 0.0 0.00 0.00 0.00 56 1012.2
20210926142529 64 0.0 0.0 0.00 0.00 0.00 57 1012.1
20210926141529 63 0.0 0.0 0.00 0.00 0.00 58 1012.1
20210926140519 62 0.0 0.0 0.00 0.00 0.00 58 1012.1
20210926135529 61 0.0 0.0 0.00 0.00 0.00 59 1011.9
20210926134517 60 0.0 0.0 0.00 0.00 0.00 59 1011.9
20210926133528 60 0.0 0.0 0.00 0.00 0.00 60 1012.2
20210926132519 59 0.0 0.0 0.00 0.00 0.00 61 1012.1
20210926131529 59 0.0 0.0 0.00 0.00 0.00 61 1012.1
20210926130529 58 0.0 0.0 0.00 0.00 0.00 62 1012.2
20210926125519 57 0.0 0.0 0.00 0.00 0.00 63 1012.2
20210926124530 57 0.0 0.0 0.00 0.00 0.00 63 1012.2
20210926123517 56 0.0 0.0 0.00 0.00 0.00 64 1012.2
20210926122529 56 0.0 0.0 0.00 0.00 0.00 64 1012.2
20210926121529 55 0.0 0.0 0.00 0.00 0.00 65 1012.2
20210926120531 55 0.0 0.0 0.00 0.00 0.00 66 1012.3
20210926115519 54 0.0 0.0 0.00 0.00 0.00 67 1012.2
20210926114530 54 0.0 0.0 0.00 0.00 0.00 68 1012.2
20210926113519 53 0.0 0.0 0.00 0.00 0.00 69 1012.3
20210926112531 53 0.0 0.0 0.00 0.00 0.00 68 1012.2
20210926111530 53 0.0 0.0 0.00 0.00 0.00 68 1012.2
20210926110530 53 0.0 0.0 0.00 0.00 0.00 68 1012.2
20210926105518 53 0.0 0.0 0.00 0.00 0.00 68 1012.2
20210926104529 53 0.0 0.0 0.00 0.00 0.00 69 1012.2
20210926103530 53 0.0 0.0 0.00 0.00 0.00 69 1012.1
20210926102530 53 0.0 0.0 0.00 0.00 0.00 68 1012.3
20210926101518 53 0.0 0.0 0.00 0.00 0.00 67 1012.3
20210926100530 53 0.0 0.0 0.00 0.00 0.00 66 1012.3
20210926095519 54 0.0 0.0 0.00 0.00 0.00 65 1012.3
20210926094519 54 0.0 0.0 0.00 0.00 0.00 65 1012.3
20210926093530 55 0.0 0.0 0.00 0.00 0.00 64 1012.4
20210926092530 55 0.0 0.0 0.00 0.00 0.00 63 1012.4
20210926091523 55 0.0 0.0 0.00 0.00 0.00 62 1012.4
20210926090530 56 0.0 0.0 0.00 0.00 0.00 61 1012.5
20210926085530 56 0.0 0.0 0.00 0.00 0.00 60 1012.5
20210926084530 56 0.0 0.0 0.00 0.00 0.00 60 1012.5
20210926083530 56 0.0 0.0 0.00 0.00 0.00 60 1012.6
20210926082530 56 0.0 0.0 0.00 0.00 0.00 60 1012.5
20210926081519 56 0.0 0.0 0.00 0.00 0.00 59 1012.5
20210926080530 56 0.0 0.0 0.00 0.00 0.00 59 1012.6
20210926075529 56 0.0 0.0 0.00 0.00 0.00 59 1012.5
20210926074530 56 0.0 0.0 0.00 0.00 0.00 58 1012.5
20210926073519 56 0.0 0.0 0.00 0.00 0.00 59 1012.5
20210926072530 55 0.0 0.0 0.00 0.00 0.00 60 1012.5